| time (UTC) | temp C | wind direction | speed KPH | gust KPH | rain 1hr cm | rain 24hr cm | rain mn cm | humidity % | barometer mb |
| 20260508055003 | 9 | 199 | 3.2 | 9.7 | 0.00 | 0.00 | 0.00 | 67 | 1016.7 |
| 20260508054503 | 9 | 200 | 3.2 | 9.7 | 0.00 | 0.00 | 0.00 | 66 | 1016.8 |
| 20260508054003 | 9 | 199 | 3.2 | 9.7 | 0.00 | 0.00 | 0.00 | 66 | 1016.9 |
| 20260508053503 | 9 | 199 | 3.2 | 6.4 | 0.00 | 0.00 | 0.00 | 66 | 1016.9 |
| 20260508053003 | 9 | 199 | 3.2 | 6.4 | 0.00 | 0.00 | 0.00 | 66 | 1016.9 |
| 20260508052503 | 9 | 199 | 3.2 | 6.4 | 0.00 | 0.00 | 0.00 | 65 | 1017.0 |
| 20260508052003 | 9 | 199 | 3.2 | 8.0 | 0.00 | 0.00 | 0.00 | 65 | 1017.0 |
| 20260508051503 | 9 | 199 | 3.2 | 8.0 | 0.00 | 0.00 | 0.00 | 65 | 1017.0 |
| 20260508051003 | 9 | 199 | 3.2 | 8.0 | 0.00 | 0.00 | 0.00 | 64 | 1017.0 |
| 20260508050503 | 9 | 199 | 1.6 | 6.4 | 0.00 | 0.00 | 0.00 | 64 | 1017.1 |
| 20260508050003 | 9 | 199 | 3.2 | 9.7 | 0.00 | 0.00 | 0.00 | 64 | 1017.1 |
| 20260508045717 | 9 | 199 | 3.2 | 9.7 | 0.00 | 0.00 | 0.00 | 63 | 1017.1 |
| 20260508045003 | 9 | 200 | 3.2 | 9.7 | 0.00 | 0.00 | 0.00 | 63 | 1017.2 |
| 20260508044503 | 9 | 201 | 3.2 | 8.0 | 0.00 | 0.00 | 0.00 | 62 | 1017.3 |
| 20260508044003 | 9 | 201 | 1.6 | 6.4 | 0.00 | 0.00 | 0.00 | 61 | 1017.3 |
| 20260508043503 | 9 | 201 | 1.6 | 4.8 | 0.00 | 0.00 | 0.00 | 61 | 1017.3 |
| 20260508043003 | 9 | 201 | 3.2 | 11.3 | 0.00 | 0.00 | 0.00 | 61 | 1017.3 |
| 20260508042503 | 9 | 202 | 4.8 | 11.3 | 0.00 | 0.00 | 0.00 | 61 | 1017.3 |
| 20260508042003 | 9 | 205 | 4.8 | 14.5 | 0.00 | 0.00 | 0.00 | 61 | 1017.3 |
| 20260508041504 | 9 | 215 | 4.8 | 14.5 | 0.00 | 0.00 | 0.00 | 60 | 1017.3 |
| 20260508041218 | 9 | 219 | 4.8 | 14.5 | 0.00 | 0.00 | 0.00 | 60 | 1017.3 |
| 20260508040716 | 9 | 222 | 4.8 | 8.0 | 0.00 | 0.00 | 0.00 | 61 | 1017.2 |
| 20260508040004 | 8 | 224 | 4.8 | 11.3 | 0.00 | 0.00 | 0.00 | 61 | 1017.1 |
| 20260508035503 | 8 | 226 | 4.8 | 11.3 | 0.00 | 0.00 | 0.00 | 61 | 1017.0 |
| 20260508035217 | 8 | 227 | 4.8 | 9.7 | 0.00 | 0.00 | 0.00 | 62 | 1017.1 |
| 20260508034503 | 8 | 229 | 3.2 | 9.7 | 0.00 | 0.00 | 0.00 | 63 | 1017.1 |
| 20260508034003 | 8 | 229 | 3.2 | 8.0 | 0.00 | 0.00 | 0.00 | 64 | 1017.1 |
| 20260508033503 | 8 | 229 | 3.2 | 8.0 | 0.00 | 0.00 | 0.00 | 64 | 1017.0 |
| 20260508033003 | 8 | 229 | 3.2 | 6.4 | 0.00 | 0.00 | 0.00 | 65 | 1017.0 |
| 20260508032503 | 8 | 230 | 3.2 | 8.0 | 0.00 | 0.00 | 0.00 | 66 | 1017.0 |
| 20260508032003 | 8 | 233 | 3.2 | 9.7 | 0.00 | 0.00 | 0.00 | 66 | 1017.0 |
| 20260508031503 | 8 | 251 | 3.2 | 9.7 | 0.00 | 0.00 | 0.00 | 67 | 1016.9 |
| 20260508031003 | 8 | 266 | 3.2 | 6.4 | 0.00 | 0.00 | 0.00 | 69 | 1016.9 |
| 20260508030503 | 8 | 266 | 3.2 | 6.4 | 0.00 | 0.00 | 0.00 | 70 | 1016.8 |
| 20260508030003 | 8 | 266 | 3.2 | 6.4 | 0.00 | 0.00 | 0.00 | 73 | 1016.9 |
| 20260508025503 | 8 | 266 | 3.2 | 4.8 | 0.00 | 0.00 | 0.00 | 73 | 1017.0 |
| 20260508025217 | 8 | 266 | 3.2 | 4.8 | 0.00 | 0.00 | 0.00 | 73 | 1017.0 |
| 20260508024718 | 7 | 266 | 3.2 | 4.8 | 0.00 | 0.00 | 0.00 | 73 | 1017.0 |
| 20260508024217 | 7 | 266 | 1.6 | 3.2 | 0.00 | 0.00 | 0.00 | 73 | 1017.0 |
| 20260508023503 | 7 | 266 | 1.6 | 3.2 | 0.00 | 0.00 | 0.00 | 73 | 1017.1 |
| 20260508023003 | 8 | 266 | 0.0 | 3.2 | 0.00 | 0.00 | 0.00 | 72 | 1017.1 |
| 20260508022503 | 8 | 266 | 1.6 | 3.2 | 0.00 | 0.00 | 0.00 | 71 | 1017.0 |
| 20260508022003 | 8 | 266 | 1.6 | 3.2 | 0.00 | 0.00 | 0.00 | 70 | 1017.1 |
| 20260508021718 | 8 | 266 | 1.6 | 3.2 | 0.00 | 0.00 | 0.00 | 70 | 1017.0 |
| 20260508021003 | 8 | 266 | 1.6 | 4.8 | 0.00 | 0.00 | 0.00 | 69 | 1017.0 |
| 20260508020503 | 8 | 266 | 3.2 | 4.8 | 0.00 | 0.00 | 0.00 | 69 | 1017.0 |
| 20260508020003 | 8 | 266 | 3.2 | 4.8 | 0.00 | 0.00 | 0.00 | 69 | 1016.9 |
| 20260508015503 | 8 | 266 | 1.6 | 4.8 | 0.00 | 0.00 | 0.00 | 68 | 1017.0 |
| 20260508015003 | 8 | 266 | 1.6 | 3.2 | 0.00 | 0.00 | 0.00 | 68 | 1016.9 |
| 20260508014503 | 9 | 266 | 1.6 | 3.2 | 0.00 | 0.00 | 0.00 | 67 | 1016.9 |
| 20260508014003 | 9 | 266 | 1.6 | 3.2 | 0.00 | 0.00 | 0.00 | 66 | 1016.8 |
| 20260508013503 | 9 | 266 | 1.6 | 3.2 | 0.00 | 0.00 | 0.00 | 65 | 1016.8 |
| 20260508013003 | 9 | 266 | 1.6 | 3.2 | 0.00 | 0.00 | 0.00 | 63 | 1016.8 |
| 20260508012503 | 9 | 266 | 0.0 | 3.2 | 0.00 | 0.00 | 0.00 | 63 | 1016.9 |
| 20260508012003 | 10 | 0 | 0.0 | 0.0 | 0.00 | 0.00 | 0.00 | 62 | 1016.8 |
| 20260508011503 | 10 | 266 | 0.0 | 1.6 | 0.00 | 0.00 | 0.00 | 63 | 1016.7 |
| 20260508011003 | 10 | 266 | 0.0 | 1.6 | 0.00 | 0.00 | 0.00 | 62 | 1016.7 |
| 20260508010503 | 10 | 266 | 0.0 | 3.2 | 0.00 | 0.00 | 0.00 | 62 | 1016.7 |
| 20260508010003 | 10 | 266 | 0.0 | 4.8 | 0.00 | 0.00 | 0.00 | 62 | 1016.6 |
| 20260508005717 | 10 | 266 | 0.0 | 4.8 | 0.00 | 0.00 | 0.00 | 61 | 1016.6 |
| 20260508005003 | 10 | 266 | 1.6 | 3.2 | 0.00 | 0.00 | 0.00 | 61 | 1016.7 |
| 20260508004503 | 10 | 266 | 1.6 | 4.8 | 0.00 | 0.00 | 0.00 | 60 | 1016.7 |
| 20260508004003 | 10 | 266 | 3.2 | 4.8 | 0.00 | 0.00 | 0.00 | 60 | 1016.7 |
| 20260508003503 | 10 | 266 | 3.2 | 4.8 | 0.00 | 0.00 | 0.00 | 60 | 1016.7 |
| 20260508003003 | 11 | 266 | 3.2 | 6.4 | 0.00 | 0.00 | 0.00 | 60 | 1016.6 |
| 20260508002503 | 11 | 266 | 3.2 | 9.7 | 0.00 | 0.00 | 0.00 | 60 | 1016.6 |
| 20260508002003 | 11 | 266 | 3.2 | 9.7 | 0.00 | 0.00 | 0.00 | 60 | 1016.6 |
| 20260508001717 | 11 | 266 | 3.2 | 6.4 | 0.00 | 0.00 | 0.00 | 60 | 1016.5 |
| 20260508001003 | 11 | 274 | 3.2 | 11.3 | 0.00 | 0.00 | 0.00 | 58 | 1016.5 |
| 20260508000503 | 11 | 321 | 3.2 | 9.7 | 0.00 | 0.00 | 0.00 | 59 | 1016.5 |
| 20260508000003 | 11 | 360 | 3.2 | 12.9 | 0.00 | 0.00 | 0.00 | 59 | 1016.5 |
| 20260507235503 | 11 | 360 | 3.2 | 12.9 | 0.00 | 0.00 | 0.00 | 59 | 1016.4 |
| 20260507235003 | 11 | 359 | 3.2 | 9.7 | 0.00 | 0.00 | 0.00 | 56 | 1016.4 |
| 20260507234503 | 11 | 296 | 4.8 | 12.9 | 0.00 | 0.00 | 0.00 | 55 | 1016.4 |
| 20260507234003 | 11 | 266 | 4.8 | 12.9 | 0.00 | 0.00 | 0.00 | 54 | 1016.4 |
| 20260507233717 | 11 | 266 | 4.8 | 12.9 | 0.00 | 0.00 | 0.00 | 55 | 1016.4 |
| 20260507233003 | 12 | 267 | 4.8 | 14.5 | 0.00 | 0.00 | 0.00 | 55 | 1016.4 |
| 20260507232503 | 12 | 268 | 4.8 | 14.5 | 0.00 | 0.00 | 0.00 | 56 | 1016.5 |
| 20260507232003 | 12 | 268 | 4.8 | 12.9 | 0.00 | 0.00 | 0.00 | 55 | 1016.4 |
| 20260507231503 | 12 | 268 | 4.8 | 12.9 | 0.00 | 0.00 | 0.00 | 54 | 1016.4 |
| 20260507231003 | 12 | 268 | 4.8 | 11.3 | 0.00 | 0.00 | 0.00 | 53 | 1016.5 |
| 20260507230503 | 12 | 268 | 4.8 | 11.3 | 0.00 | 0.00 | 0.00 | 53 | 1016.5 |
| 20260507230218 | 12 | 268 | 4.8 | 11.3 | 0.00 | 0.00 | 0.00 | 55 | 1016.5 |
| 20260507225503 | 12 | 268 | 4.8 | 12.9 | 0.00 | 0.00 | 0.00 | 54 | 1016.5 |
| 20260507225003 | 12 | 269 | 4.8 | 16.1 | 0.00 | 0.00 | 0.00 | 52 | 1016.6 |
| 20260507224717 | 12 | 270 | 6.4 | 19.3 | 0.00 | 0.00 | 0.00 | 53 | 1016.5 |
| 20260507224003 | 12 | 267 | 8.0 | 19.3 | 0.00 | 0.00 | 0.00 | 51 | 1016.6 |
| 20260507223503 | 12 | 265 | 6.4 | 14.5 | 0.00 | 0.00 | 0.00 | 53 | 1016.6 |
| 20260507223003 | 12 | 266 | 6.4 | 19.3 | 0.00 | 0.00 | 0.00 | 56 | 1016.7 |
| 20260507222716 | 12 | 265 | 8.0 | 19.3 | 0.00 | 0.00 | 0.00 | 54 | 1016.6 |
| 20260507222003 | 12 | 261 | 6.4 | 12.9 | 0.00 | 0.00 | 0.00 | 55 | 1016.6 |
| 20260507221503 | 12 | 261 | 8.0 | 14.5 | 0.00 | 0.00 | 0.00 | 58 | 1016.5 |
| 20260507221003 | 12 | 263 | 6.4 | 14.5 | 0.00 | 0.00 | 0.00 | 56 | 1016.5 |
| 20260507220503 | 12 | 265 | 8.0 | 14.5 | 0.00 | 0.00 | 0.00 | 56 | 1016.4 |
| 20260507220003 | 12 | 264 | 8.0 | 16.1 | 0.00 | 0.00 | 0.00 | 55 | 1016.5 |
| 20260507215503 | 12 | 264 | 4.8 | 16.1 | 0.00 | 0.00 | 0.00 | 55 | 1016.4 |
| 20260507215003 | 12 | 267 | 6.4 | 14.5 | 0.00 | 0.00 | 0.00 | 59 | 1016.3 |
| 20260507214718 | 12 | 268 | 8.0 | 14.5 | 0.00 | 0.00 | 0.00 | 56 | 1016.4 |
| 20260507214217 | 12 | 269 | 8.0 | 14.5 | 0.00 | 0.00 | 0.00 | 55 | 1016.4 |
| 20260507213503 | 12 | 271 | 6.4 | 17.7 | 0.00 | 0.00 | 0.00 | 54 | 1016.4 |
| 20260507213003 | 12 | 268 | 6.4 | 17.7 | 0.00 | 0.00 | 0.00 | 60 | 1016.4 |
| 20260507212503 | 12 | 268 | 6.4 | 16.1 | 0.00 | 0.00 | 0.00 | 58 | 1016.3 |
| 20260507212003 | 12 | 308 | 6.4 | 16.1 | 0.00 | 0.00 | 0.00 | 58 | 1016.2 |
| 20260507211503 | 12 | 355 | 6.4 | 12.9 | 0.00 | 0.00 | 0.00 | 60 | 1016.2 |
| 20260507211003 | 12 | 360 | 6.4 | 12.9 | 0.00 | 0.00 | 0.00 | 56 | 1016.1 |
| 20260507210503 | 12 | 356 | 6.4 | 22.5 | 0.00 | 0.00 | 0.00 | 59 | 1016.1 |
| 20260507210217 | 12 | 357 | 8.0 | 22.5 | 0.00 | 0.00 | 0.00 | 58 | 1016.1 |
| 20260507205718 | 11 | 360 | 6.4 | 22.5 | 0.00 | 0.00 | 0.00 | 57 | 1016.1 |
| 20260507205003 | 11 | 360 | 6.4 | 14.5 | 0.00 | 0.00 | 0.00 | 60 | 1016.0 |
| 20260507204503 | 11 | 360 | 4.8 | 14.5 | 0.00 | 0.00 | 0.00 | 60 | 1016.1 |
| 20260507204217 | 11 | 360 | 4.8 | 14.5 | 0.00 | 0.00 | 0.00 | 59 | 1016.1 |
| 20260507203503 | 11 | 360 | 4.8 | 17.7 | 0.00 | 0.00 | 0.00 | 63 | 1016.1 |
| 20260507203003 | 11 | 352 | 6.4 | 17.7 | 0.00 | 0.00 | 0.00 | 61 | 1016.1 |
| 20260507202503 | 12 | 287 | 4.8 | 14.5 | 0.00 | 0.00 | 0.00 | 61 | 1016.1 |
| 20260507202003 | 12 | 265 | 3.2 | 14.5 | 0.00 | 0.00 | 0.00 | 57 | 1016.2 |
| 20260507201503 | 12 | 265 | 3.2 | 12.9 | 0.00 | 0.00 | 0.00 | 62 | 1016.1 |
| 20260507201003 | 12 | 266 | 4.8 | 12.9 | 0.00 | 0.00 | 0.00 | 60 | 1016.0 |
| 20260507200503 | 12 | 266 | 4.8 | 12.9 | 0.00 | 0.00 | 0.00 | 59 | 1016.1 |
| 20260507200003 | 12 | 266 | 3.2 | 12.9 | 0.00 | 0.00 | 0.00 | 59 | 1016.2 |
| 20260507195503 | 12 | 266 | 3.2 | 6.4 | 0.00 | 0.00 | 0.00 | 59 | 1016.2 |
| 20260507195003 | 12 | 266 | 3.2 | 6.4 | 0.00 | 0.00 | 0.00 | 59 | 1016.4 |
| 20260507194503 | 12 | 265 | 3.2 | 9.7 | 0.00 | 0.00 | 0.00 | 56 | 1016.4 |
| 20260507194003 | 13 | 265 | 4.8 | 12.9 | 0.00 | 0.00 | 0.00 | 58 | 1016.5 |
| 20260507193503 | 13 | 274 | 4.8 | 12.9 | 0.00 | 0.00 | 0.00 | 58 | 1016.4 |
| 20260507193216 | 13 | 306 | 3.2 | 9.7 | 0.00 | 0.00 | 0.00 | 61 | 1016.5 |
| 20260507192503 | 12 | 339 | 4.8 | 12.9 | 0.00 | 0.00 | 0.00 | 56 | 1016.6 |
| 20260507192003 | 12 | 340 | 4.8 | 12.9 | 0.00 | 0.00 | 0.00 | 59 | 1016.5 |
| 20260507191503 | 12 | 350 | 4.8 | 16.1 | 0.00 | 0.00 | 0.00 | 54 | 1016.6 |
| 20260507191003 | 12 | 296 | 8.0 | 19.3 | 0.00 | 0.00 | 0.00 | 52 | 1016.7 |
| 20260507190503 | 12 | 264 | 8.0 | 19.3 | 0.00 | 0.00 | 0.00 | 52 | 1016.6 |
| 20260507190004 | 13 | 262 | 6.4 | 17.7 | 0.00 | 0.00 | 0.00 | 55 | 1016.7 |
| 20260507185503 | 13 | 262 | 4.8 | 14.5 | 0.00 | 0.00 | 0.00 | 60 | 1016.6 |
| 20260507185003 | 13 | 262 | 4.8 | 14.5 | 0.00 | 0.00 | 0.00 | 59 | 1016.6 |
| 20260507184503 | 13 | 264 | 3.2 | 14.5 | 0.00 | 0.00 | 0.00 | 55 | 1016.7 |
| 20260507184003 | 13 | 265 | 3.2 | 6.4 | 0.00 | 0.00 | 0.00 | 61 | 1016.7 |
| 20260507183503 | 13 | 266 | 4.8 | 9.7 | 0.00 | 0.00 | 0.00 | 63 | 1016.7 |
| 20260507183003 | 13 | 266 | 3.2 | 9.7 | 0.00 | 0.00 | 0.00 | 55 | 1016.7 |
| 20260507182503 | 13 | 266 | 3.2 | 9.7 | 0.00 | 0.00 | 0.00 | 56 | 1016.8 |
| 20260507182003 | 13 | 266 | 4.8 | 12.9 | 0.00 | 0.00 | 0.00 | 62 | 1016.8 |
| 20260507181717 | 13 | 266 | 4.8 | 12.9 | 0.00 | 0.00 | 0.00 | 58 | 1016.8 |
| 20260507181003 | 13 | 265 | 3.2 | 9.7 | 0.00 | 0.00 | 0.00 | 58 | 1016.8 |
| 20260507180503 | 13 | 265 | 3.2 | 6.4 | 0.00 | 0.00 | 0.00 | 54 | 1016.8 |
| 20260507180003 | 13 | 265 | 3.2 | 6.4 | 0.00 | 0.00 | 0.00 | 57 | 1016.8 |
| 20260507175717 | 13 | 265 | 3.2 | 6.4 | 0.00 | 0.00 | 0.00 | 55 | 1016.9 |
| 20260507175003 | 13 | 265 | 4.8 | 12.9 | 0.00 | 0.00 | 0.00 | 59 | 1016.9 |
| 20260507174503 | 13 | 265 | 3.2 | 12.9 | 0.00 | 0.00 | 0.00 | 61 | 1016.8 |
| 20260507174003 | 12 | 265 | 3.2 | 11.3 | 0.00 | 0.00 | 0.00 | 58 | 1016.8 |
| 20260507173717 | 12 | 265 | 4.8 | 19.3 | 0.00 | 0.00 | 0.00 | 62 | 1016.9 |
| 20260507173218 | 12 | 265 | 6.4 | 19.3 | 0.00 | 0.00 | 0.00 | 56 | 1016.9 |
| 20260507172503 | 13 | 266 | 6.4 | 17.7 | 0.00 | 0.00 | 0.00 | 53 | 1017.0 |
| 20260507172003 | 13 | 266 | 4.8 | 17.7 | 0.00 | 0.00 | 0.00 | 53 | 1016.9 |
| 20260507171503 | 13 | 267 | 3.2 | 11.3 | 0.00 | 0.00 | 0.00 | 65 | 1017.0 |
| 20260507171003 | 12 | 266 | 3.2 | 11.3 | 0.00 | 0.00 | 0.00 | 57 | 1017.0 |
| 20260507170503 | 13 | 265 | 4.8 | 9.7 | 0.00 | 0.00 | 0.00 | 62 | 1017.0 |
| 20260507170003 | 12 | 264 | 4.8 | 9.7 | 0.00 | 0.00 | 0.00 | 62 | 1017.0 |
| 20260507165503 | 13 | 262 | 4.8 | 16.1 | 0.00 | 0.00 | 0.00 | 60 | 1016.9 |
| 20260507165003 | 12 | 262 | 4.8 | 16.1 | 0.00 | 0.00 | 0.00 | 56 | 1016.9 |
| 20260507164503 | 13 | 261 | 3.2 | 6.4 | 0.00 | 0.00 | 0.00 | 59 | 1016.9 |
| 20260507164217 | 13 | 261 | 3.2 | 6.4 | 0.00 | 0.00 | 0.00 | 61 | 1016.9 |
| 20260507163716 | 13 | 261 | 3.2 | 9.7 | 0.00 | 0.00 | 0.00 | 57 | 1017.0 |
| 20260507163217 | 13 | 261 | 3.2 | 9.7 | 0.00 | 0.00 | 0.00 | 59 | 1016.9 |
| 20260507162503 | 13 | 261 | 3.2 | 6.4 | 0.00 | 0.00 | 0.00 | 58 | 1016.9 |
| 20260507162003 | 13 | 261 | 3.2 | 6.4 | 0.00 | 0.00 | 0.00 | 62 | 1016.9 |
| 20260507161503 | 13 | 260 | 3.2 | 12.9 | 0.00 | 0.00 | 0.00 | 60 | 1016.9 |
| 20260507161003 | 13 | 260 | 4.8 | 12.9 | 0.00 | 0.00 | 0.00 | 56 | 1016.8 |
| 20260507160503 | 13 | 260 | 4.8 | 12.9 | 0.00 | 0.00 | 0.00 | 54 | 1016.9 |
| 20260507160217 | 13 | 260 | 4.8 | 12.9 | 0.00 | 0.00 | 0.00 | 56 | 1016.9 |
| 20260507155503 | 13 | 260 | 3.2 | 14.5 | 0.00 | 0.00 | 0.00 | 55 | 1016.9 |
| 20260507155003 | 13 | 259 | 3.2 | 16.1 | 0.00 | 0.00 | 0.00 | 58 | 1016.9 |
| 20260507154503 | 13 | 258 | 4.8 | 16.1 | 0.00 | 0.00 | 0.00 | 61 | 1017.0 |
| 20260507154217 | 13 | 257 | 3.2 | 16.1 | 0.00 | 0.00 | 0.00 | 61 | 1017.0 |
| 20260507153504 | 13 | 257 | 3.2 | 9.7 | 0.00 | 0.00 | 0.00 | 64 | 1016.9 |
| 20260507153003 | 13 | 257 | 3.2 | 6.4 | 0.00 | 0.00 | 0.00 | 59 | 1017.0 |
| 20260507152503 | 13 | 257 | 1.6 | 6.4 | 0.00 | 0.00 | 0.00 | 66 | 1016.9 |
| 20260507152217 | 13 | 257 | 3.2 | 9.7 | 0.00 | 0.00 | 0.00 | 64 | 1016.9 |
| 20260507151503 | 12 | 257 | 3.2 | 9.7 | 0.00 | 0.00 | 0.00 | 61 | 1017.0 |
| 20260507151003 | 12 | 257 | 3.2 | 12.9 | 0.00 | 0.00 | 0.00 | 68 | 1017.0 |
| 20260507150503 | 12 | 257 | 4.8 | 12.9 | 0.00 | 0.00 | 0.00 | 63 | 1017.0 |
| 20260507150003 | 12 | 257 | 4.8 | 12.9 | 0.00 | 0.00 | 0.00 | 63 | 1017.0 |
| 20260507145718 | 12 | 256 | 4.8 | 12.9 | 0.00 | 0.00 | 0.00 | 64 | 1017.0 |
| 20260507145003 | 12 | 252 | 4.8 | 14.5 | 0.00 | 0.00 | 0.00 | 60 | 1016.9 |
| 20260507144503 | 12 | 229 | 4.8 | 14.5 | 0.00 | 0.00 | 0.00 | 61 | 1017.0 |
| 20260507144003 | 12 | 199 | 4.8 | 8.0 | 0.00 | 0.00 | 0.00 | 63 | 1016.9 |
| 20260507143503 | 12 | 198 | 3.2 | 8.0 | 0.00 | 0.00 | 0.00 | 58 | 1016.8 |
| 20260507143003 | 12 | 194 | 3.2 | 8.0 | 0.00 | 0.00 | 0.00 | 57 | 1016.8 |
| 20260507142503 | 12 | 192 | 3.2 | 6.4 | 0.00 | 0.00 | 0.00 | 59 | 1016.9 |
| 20260507142003 | 12 | 192 | 3.2 | 8.0 | 0.00 | 0.00 | 0.00 | 61 | 1016.9 |
| 20260507141503 | 12 | 191 | 3.2 | 8.0 | 0.00 | 0.00 | 0.00 | 65 | 1017.0 |
| 20260507141003 | 12 | 190 | 1.6 | 4.8 | 0.00 | 0.00 | 0.00 | 67 | 1017.1 |
| 20260507140503 | 11 | 190 | 1.6 | 4.8 | 0.00 | 0.00 | 0.00 | 65 | 1017.1 |
| 20260507140003 | 11 | 190 | 1.6 | 4.8 | 0.00 | 0.00 | 0.00 | 66 | 1017.1 |
| 20260507135503 | 11 | 190 | 1.6 | 6.4 | 0.00 | 0.00 | 0.00 | 67 | 1017.2 |
| 20260507135003 | 11 | 190 | 3.2 | 6.4 | 0.00 | 0.00 | 0.00 | 70 | 1017.3 |
| 20260507134503 | 11 | 190 | 3.2 | 6.4 | 0.00 | 0.00 | 0.00 | 67 | 1017.4 |
| 20260507134218 | 11 | 190 | 3.2 | 6.4 | 0.00 | 0.00 | 0.00 | 67 | 1017.4 |
| 20260507133503 | 11 | 190 | 3.2 | 6.4 | 0.00 | 0.00 | 0.00 | 70 | 1017.3 |
| 20260507133003 | 11 | 190 | 3.2 | 6.4 | 0.00 | 0.00 | 0.00 | 71 | 1017.4 |
| 20260507132717 | 11 | 190 | 3.2 | 6.4 | 0.00 | 0.00 | 0.00 | 69 | 1017.4 |
| 20260507132003 | 11 | 190 | 3.2 | 6.4 | 0.00 | 0.00 | 0.00 | 73 | 1017.3 |
| 20260507131503 | 11 | 189 | 3.2 | 8.0 | 0.00 | 0.00 | 0.00 | 73 | 1017.3 |
| 20260507131003 | 11 | 186 | 3.2 | 8.0 | 0.00 | 0.00 | 0.00 | 71 | 1017.3 |
| 20260507130503 | 10 | 184 | 3.2 | 6.4 | 0.00 | 0.00 | 0.00 | 72 | 1017.3 |
| 20260507130003 | 10 | 184 | 3.2 | 6.4 | 0.00 | 0.00 | 0.00 | 72 | 1017.3 |
| 20260507125503 | 10 | 184 | 3.2 | 6.4 | 0.00 | 0.00 | 0.00 | 72 | 1017.3 |
| 20260507125003 | 10 | 184 | 1.6 | 6.4 | 0.00 | 0.00 | 0.00 | 74 | 1017.4 |
| 20260507124503 | 10 | 184 | 1.6 | 6.4 | 0.00 | 0.00 | 0.00 | 72 | 1017.3 |
| 20260507124003 | 10 | 184 | 1.6 | 4.8 | 0.00 | 0.00 | 0.00 | 73 | 1017.3 |
| 20260507123503 | 10 | 184 | 1.6 | 4.8 | 0.00 | 0.00 | 0.00 | 74 | 1017.4 |
| 20260507123218 | 10 | 183 | 1.6 | 4.8 | 0.00 | 0.00 | 0.00 | 74 | 1017.4 |
| 20260507122503 | 9 | 182 | 1.6 | 6.4 | 0.00 | 0.00 | 0.00 | 72 | 1017.3 |
| 20260507122003 | 9 | 181 | 1.6 | 6.4 | 0.00 | 0.00 | 0.00 | 73 | 1017.3 |
| 20260507121503 | 9 | 181 | 1.6 | 4.8 | 0.00 | 0.00 | 0.00 | 73 | 1017.3 |
| 20260507121003 | 8 | 181 | 0.0 | 4.8 | 0.00 | 0.00 | 0.00 | 73 | 1017.2 |
| 20260507120717 | 8 | 181 | 1.6 | 6.4 | 0.00 | 0.00 | 0.00 | 73 | 1017.3 |
| 20260507120004 | 8 | 181 | 1.6 | 6.4 | 0.00 | 0.00 | 0.00 | 73 | 1017.2 |
| 20260507115503 | 8 | 181 | 1.6 | 6.4 | 0.00 | 0.00 | 0.00 | 74 | 1017.2 |
| 20260507115003 | 8 | 181 | 1.6 | 4.8 | 0.00 | 0.00 | 0.00 | 75 | 1017.1 |
| 20260507114503 | 8 | 181 | 1.6 | 4.8 | 0.00 | 0.00 | 0.00 | 76 | 1017.1 |
| 20260507114003 | 8 | 181 | 0.0 | 4.8 | 0.00 | 0.00 | 0.00 | 76 | 1017.2 |
| 20260507113503 | 7 | 0 | 0.0 | 0.0 | 0.00 | 0.00 | 0.00 | 77 | 1017.2 |
| 20260507113003 | 7 | 0 | 0.0 | 0.0 | 0.00 | 0.00 | 0.00 | 77 | 1017.2 |
| 20260507112503 | 7 | 0 | 0.0 | 0.0 | 0.00 | 0.00 | 0.00 | 77 | 1017.1 |
| 20260507112003 | 7 | 181 | 1.6 | 4.8 | 0.00 | 0.00 | 0.00 | 77 | 1017.1 |
| 20260507111504 | 7 | 181 | 1.6 | 4.8 | 0.00 | 0.00 | 0.00 | 77 | 1017.1 |
| 20260507111217 | 7 | 181 | 1.6 | 4.8 | 0.00 | 0.00 | 0.00 | 77 | 1017.1 |
| 20260507110503 | 7 | 181 | 1.6 | 4.8 | 0.00 | 0.00 | 0.00 | 77 | 1017.0 |
| 20260507110217 | 7 | 181 | 3.2 | 4.8 | 0.00 | 0.00 | 0.00 | 77 | 1016.8 |
| 20260507105503 | 7 | 181 | 3.2 | 6.4 | 0.00 | 0.00 | 0.00 | 78 | 1016.8 |
| 20260507105003 | 7 | 181 | 1.6 | 6.4 | 0.00 | 0.00 | 0.00 | 78 | 1016.8 |
| 20260507104503 | 7 | 181 | 1.6 | 4.8 | 0.00 | 0.00 | 0.00 | 78 | 1016.7 |
| 20260507104003 | 7 | 181 | 3.2 | 4.8 | 0.00 | 0.00 | 0.00 | 78 | 1016.7 |
| 20260507103503 | 7 | 181 | 1.6 | 6.4 | 0.00 | 0.00 | 0.00 | 78 | 1016.7 |
| 20260507103003 | 7 | 181 | 3.2 | 6.4 | 0.00 | 0.00 | 0.00 | 79 | 1016.6 |
| 20260507102503 | 7 | 181 | 3.2 | 8.0 | 0.00 | 0.00 | 0.00 | 79 | 1016.6 |
| 20260507102003 | 7 | 181 | 3.2 | 8.0 | 0.00 | 0.00 | 0.00 | 79 | 1016.6 |
| 20260507101503 | 7 | 181 | 3.2 | 6.4 | 0.00 | 0.00 | 0.00 | 78 | 1016.5 |
| 20260507101003 | 7 | 181 | 3.2 | 6.4 | 0.00 | 0.00 | 0.00 | 78 | 1016.6 |
| 20260507100503 | 7 | 181 | 1.6 | 4.8 | 0.00 | 0.00 | 0.00 | 79 | 1016.6 |
| 20260507100217 | 7 | 181 | 1.6 | 4.8 | 0.00 | 0.00 | 0.00 | 78 | 1016.5 |
| 20260507095718 | 7 | 181 | 3.2 | 4.8 | 0.00 | 0.00 | 0.00 | 78 | 1016.5 |
| 20260507095003 | 7 | 181 | 1.6 | 4.8 | 0.00 | 0.00 | 0.00 | 79 | 1016.6 |
| 20260507094503 | 7 | 181 | 3.2 | 6.4 | 0.00 | 0.00 | 0.00 | 79 | 1016.6 |
| 20260507094003 | 7 | 181 | 1.6 | 6.4 | 0.00 | 0.03 | 0.00 | 79 | 1016.6 |
| 20260507093503 | 7 | 181 | 1.6 | 4.8 | 0.00 | 0.03 | 0.00 | 79 | 1016.6 |
| 20260507093003 | 7 | 181 | 3.2 | 4.8 | 0.00 | 0.03 | 0.00 | 79 | 1016.5 |
| 20260507092503 | 7 | 181 | 3.2 | 8.0 | 0.00 | 0.03 | 0.00 | 79 | 1016.5 |
| 20260507092003 | 7 | 181 | 3.2 | 8.0 | 0.00 | 0.03 | 0.00 | 80 | 1016.5 |
| 20260507091503 | 7 | 181 | 3.2 | 6.4 | 0.00 | 0.05 | 0.00 | 80 | 1016.6 |
| 20260507091003 | 6 | 181 | 3.2 | 8.0 | 0.00 | 0.05 | 0.00 | 80 | 1016.6 |
| 20260507090503 | 6 | 181 | 3.2 | 8.0 | 0.00 | 0.05 | 0.00 | 80 | 1016.6 |
| 20260507090004 | 6 | 181 | 3.2 | 6.4 | 0.00 | 0.05 | 0.00 | 81 | 1016.6 |
| 20260507085717 | 6 | 181 | 3.2 | 6.4 | 0.00 | 0.05 | 0.00 | 81 | 1016.5 |
| 20260507085216 | 6 | 181 | 3.2 | 6.4 | 0.00 | 0.05 | 0.00 | 81 | 1016.6 |
| 20260507084503 | 6 | 181 | 3.2 | 8.0 | 0.00 | 0.05 | 0.00 | 82 | 1016.7 |
| 20260507084003 | 6 | 181 | 3.2 | 8.0 | 0.00 | 0.08 | 0.00 | 82 | 1016.7 |
| 20260507083503 | 6 | 181 | 3.2 | 8.0 | 0.00 | 0.08 | 0.00 | 83 | 1016.7 |
| 20260507083003 | 6 | 182 | 3.2 | 11.3 | 0.00 | 0.10 | 0.00 | 83 | 1016.7 |
| 20260507082503 | 6 | 182 | 3.2 | 11.3 | 0.00 | 0.10 | 0.00 | 83 | 1016.7 |
| 20260507082216 | 6 | 182 | 3.2 | 11.3 | 0.00 | 0.13 | 0.00 | 83 | 1016.7 |
| 20260507081503 | 6 | 182 | 3.2 | 4.8 | 0.00 | 0.15 | 0.00 | 83 | 1016.8 |
| 20260507081003 | 6 | 182 | 3.2 | 6.4 | 0.00 | 0.18 | 0.00 | 83 | 1016.8 |
| 20260507080503 | 6 | 182 | 3.2 | 6.4 | 0.00 | 0.18 | 0.00 | 82 | 1016.8 |
| 20260507080003 | 6 | 182 | 3.2 | 6.4 | 0.00 | 0.20 | 0.00 | 83 | 1016.7 |
| 20260507075503 | 6 | 182 | 3.2 | 6.4 | 0.00 | 0.20 | 0.00 | 83 | 1016.8 |
| 20260507075003 | 6 | 182 | 4.8 | 9.7 | 0.00 | 0.23 | 0.00 | 83 | 1016.8 |
| 20260507074503 | 6 | 182 | 4.8 | 9.7 | 0.00 | 0.23 | 0.00 | 83 | 1016.8 |
| 20260507074003 | 6 | 182 | 4.8 | 9.7 | 0.00 | 0.25 | 0.00 | 82 | 1016.8 |
| 20260507073503 | 6 | 184 | 4.8 | 11.3 | 0.00 | 0.25 | 0.00 | 82 | 1016.8 |
| 20260507073218 | 6 | 185 | 4.8 | 11.3 | 0.00 | 0.25 | 0.00 | 82 | 1016.8 |
| 20260507072503 | 6 | 181 | 4.8 | 14.5 | 0.00 | 0.28 | 0.00 | 82 | 1016.8 |
| 20260507072003 | 6 | 167 | 4.8 | 14.5 | 0.00 | 0.28 | 0.00 | 82 | 1016.8 |
| 20260507071503 | 6 | 155 | 4.8 | 9.7 | 0.00 | 0.28 | 0.00 | 82 | 1016.8 |
| 20260507071003 | 6 | 154 | 4.8 | 11.3 | 0.00 | 0.30 | 0.00 | 82 | 1016.9 |
| 20260507070503 | 6 | 154 | 4.8 | 11.3 | 0.00 | 0.30 | 0.00 | 82 | 1016.9 |
| 20260507070004 | 6 | 153 | 4.8 | 11.3 | 0.00 | 0.30 | 0.00 | 82 | 1017.0 |
| 20260507065503 | 6 | 146 | 4.8 | 11.3 | 0.00 | 0.30 | 0.00 | 82 | 1017.0 |
| 20260507065003 | 6 | 140 | 3.2 | 11.3 | 0.00 | 0.30 | 0.00 | 82 | 1017.1 |
| 20260507064503 | 6 | 140 | 3.2 | 12.9 | 0.00 | 0.30 | 0.00 | 82 | 1017.1 |
| 20260507064003 | 6 | 140 | 4.8 | 14.5 | 0.00 | 0.30 | 0.00 | 82 | 1017.0 |
| 20260507063503 | 6 | 141 | 4.8 | 14.5 | 0.00 | 0.30 | 0.00 | 82 | 1017.1 |
| 20260507063003 | 6 | 142 | 4.8 | 14.5 | 0.00 | 0.30 | 0.00 | 82 | 1017.3 |
| 20260507062503 | 6 | 142 | 3.2 | 11.3 | 0.00 | 0.30 | 0.00 | 82 | 1017.3 |
| 20260507062003 | 6 | 142 | 3.2 | 11.3 | 0.00 | 0.30 | 0.00 | 82 | 1017.4 |
| 20260507061503 | 6 | 142 | 4.8 | 12.9 | 0.00 | 0.30 | 0.00 | 81 | 1017.5 |
| 20260507061003 | 6 | 142 | 3.2 | 12.9 | 0.00 | 0.33 | 0.00 | 81 | 1017.4 |
| 20260507060503 | 6 | 142 | 4.8 | 11.3 | 0.00 | 0.33 | 0.00 | 81 | 1017.5 |
| 20260507060003 | 6 | 142 | 4.8 | 11.3 | 0.00 | 0.33 | 0.00 | 81 | 1017.5 |
| 20260507055503 | 6 | 142 | 3.2 | 11.3 | 0.00 | 0.33 | 0.00 | 81 | 1017.5 |